TimePDT,TemperatureF,Dew PointF,Humidity,Sea Level PressureIn,VisibilityMPH,Wind Direction,Wind SpeedMPH,Gust SpeedMPH,PrecipitationIn,Events,Conditions,WindDirDegrees,DateUTC
12:53 AM,46.0,45.0,96,30.01,1.5,Calm,Calm,-,N/A,,Clear,0,2013-10-24 07:53:00
1:00 AM,45.0,44.1,97,30.00,1.0,Calm,Calm,-,N/A,,Clear,0,2013-10-24 08:00:00
1:07 AM,45.0,44.1,97,30.00,0.8,Calm,Calm,-,N/A,,Clear,0,2013-10-24 08:07:00
1:19 AM,45.0,44.1,97,30.00,0.2,Calm,Calm,-,N/A,Fog,Fog,0,2013-10-24 08:19:00
1:26 AM,46.0,44.1,93,30.01,1.0,Calm,Calm,-,N/A,,Mist,0,2013-10-24 08:26:00
1:28 AM,46.0,44.1,93,30.01,1.8,Calm,Calm,-,N/A,,Partly Cloudy,0,2013-10-24 08:28:00
1:35 AM,46.0,44.1,93,30.01,9.0,Calm,Calm,-,N/A,,Clear,0,2013-10-24 08:35:00
1:53 AM,44.1,42.1,93,30.01,6.0,Calm,Calm,-,N/A,,Clear,0,2013-10-24 08:53:00
2:04 AM,43.0,42.1,97,30.01,1.8,Calm,Calm,-,N/A,,Clear,0,2013-10-24 09:04:00
2:10 AM,43.0,42.1,97,30.01,0.8,Calm,Calm,-,N/A,,Clear,0,2013-10-24 09:10:00
2:18 AM,44.1,43.0,96,30.01,1.5,Calm,Calm,-,N/A,,Clear,0,2013-10-24 09:18:00
2:21 AM,44.1,43.0,96,30.01,3.0,Calm,Calm,-,N/A,,Clear,0,2013-10-24 09:21:00
2:30 AM,46.0,44.1,93,30.01,2.5,Calm,Calm,-,N/A,,Scattered Clouds,0,2013-10-24 09:30:00
2:45 AM,46.0,45.0,96,30.01,2.5,Calm,Calm,-,N/A,,Mostly Cloudy,0,2013-10-24 09:45:00
2:53 AM,46.0,46.0,100,30.01,4.0,Calm,Calm,-,N/A,,Overcast,0,2013-10-24 09:53:00
2:59 AM,46.9,46.0,97,30.01,1.8,Calm,Calm,-,N/A,,Overcast,0,2013-10-24 09:59:00
3:05 AM,46.9,46.0,97,30.01,0.8,Calm,Calm,-,N/A,,Mist,0,2013-10-24 10:05:00
3:53 AM,48.9,48.0,97,30.01,0.5,Calm,Calm,-,N/A,Fog,Fog,0,2013-10-24 10:53:00
4:04 AM,48.9,48.0,97,30.01,1.0,Calm,Calm,-,N/A,,Overcast,0,2013-10-24 11:04:00
4:23 AM,48.9,48.0,97,30.01,0.8,Calm,Calm,-,N/A,,Overcast,0,2013-10-24 11:23:00
4:30 AM,48.9,48.0,97,30.01,1.2,Calm,Calm,-,N/A,,Overcast,0,2013-10-24 11:30:00
4:53 AM,48.9,48.0,97,30.01,1.5,Calm,Calm,-,N/A,,Overcast,0,2013-10-24 11:53:00
5:22 AM,48.9,48.9,100,30.01,1.0,WNW,4.6,-,N/A,,Overcast,300,2013-10-24 12:22:00
5:45 AM,48.9,48.9,100,30.01,2.0,Variable,3.5,-,N/A,,Overcast,0,2013-10-24 12:45:00
5:53 AM,48.9,48.9,100,30.01,1.8,North,3.5,-,N/A,,Overcast,360,2013-10-24 12:53:00
6:15 AM,48.9,48.0,97,30.02,0.8,WNW,5.8,-,N/A,,Overcast,290,2013-10-24 13:15:00
6:51 AM,48.2,48.2,100,30.02,1.0,NW,5.8,-,N/A,,Mist,310,2013-10-24 13:51:00
6:53 AM,48.9,48.0,97,30.02,0.8,NW,5.8,-,N/A,,Mist,310,2013-10-24 13:53:00
7:53 AM,48.0,48.0,100,30.03,0.5,Calm,Calm,-,N/A,Fog,Fog,0,2013-10-24 14:53:00
8:17 AM,48.9,48.0,97,30.03,1.5,WNW,4.6,-,N/A,,Overcast,300,2013-10-24 15:17:00
8:27 AM,48.0,48.0,100,30.03,2.5,Calm,Calm,-,N/A,,Overcast,0,2013-10-24 15:27:00
8:44 AM,48.0,46.9,96,30.04,3.0,NW,6.9,-,N/A,,Overcast,310,2013-10-24 15:44:00
8:53 AM,48.0,46.9,96,30.04,2.0,NNW,5.8,-,N/A,,Overcast,330,2013-10-24 15:53:00
9:19 AM,48.0,48.0,100,30.05,3.0,WNW,6.9,-,N/A,,Overcast,300,2013-10-24 16:19:00
9:27 AM,48.0,48.0,100,30.05,2.0,NW,4.6,-,N/A,,Overcast,310,2013-10-24 16:27:00
9:39 AM,48.9,48.0,97,30.05,4.0,WNW,5.8,-,N/A,,Overcast,290,2013-10-24 16:39:00
9:53 AM,48.9,48.0,97,30.05,3.0,NW,3.5,-,N/A,,Overcast,320,2013-10-24 16:53:00
10:53 AM,50.0,48.0,93,30.05,6.0,Calm,Calm,-,N/A,,Overcast,0,2013-10-24 17:53:00
11:39 AM,51.1,48.0,89,30.05,6.0,NW,3.5,-,N/A,,Overcast,320,2013-10-24 18:39:00
11:53 AM,51.1,48.0,89,30.05,6.0,Calm,Calm,-,N/A,,Overcast,0,2013-10-24 18:53:00
12:35 PM,55.0,48.9,80,30.04,8.0,Calm,Calm,-,N/A,,Partly Cloudy,0,2013-10-24 19:35:00
12:53 PM,55.9,50.0,80,30.03,9.0,NW,3.5,-,N/A,,Clear,320,2013-10-24 19:53:00
1:53 PM,59.0,51.1,75,30.01,10.0,WSW,4.6,-,N/A,,Clear,240,2013-10-24 20:53:00
2:53 PM,63.0,52.0,67,30.00,10.0,WSW,4.6,-,N/A,,Clear,250,2013-10-24 21:53:00
3:53 PM,64.0,51.1,63,30.00,10.0,WSW,4.6,-,N/A,,Clear,250,2013-10-24 22:53:00
4:53 PM,64.0,51.1,63,30.00,10.0,WSW,3.5,-,N/A,,Clear,240,2013-10-24 23:53:00
5:53 PM,61.0,51.1,70,30.01,10.0,Calm,Calm,-,N/A,,Clear,0,2013-10-25 00:53:00
6:53 PM,57.0,51.1,81,30.03,10.0,Calm,Calm,-,N/A,,Clear,0,2013-10-25 01:53:00
7:53 PM,51.1,46.9,86,30.05,10.0,Calm,Calm,-,N/A,,Clear,0,2013-10-25 02:53:00
8:53 PM,54.0,48.0,80,30.07,10.0,NW,3.5,-,N/A,,Clear,320,2013-10-25 03:53:00
9:53 PM,52.0,48.0,86,30.09,10.0,Calm,Calm,-,N/A,,Clear,0,2013-10-25 04:53:00
10:53 PM,51.1,46.9,86,30.10,9.0,Calm,Calm,-,N/A,,Clear,0,2013-10-25 05:53:00
11:31 PM,48.9,46.0,90,30.11,8.0,NW,3.5,-,N/A,,Scattered Clouds,320,2013-10-25 06:31:00
11:40 PM,50.0,46.9,89,30.11,7.0,Calm,Calm,-,N/A,,Mostly Cloudy,0,2013-10-25 06:40:00
11:53 PM,50.0,48.0,93,30.12,7.0,Calm,Calm,-,N/A,,Overcast,0,2013-10-25 06:53:00